カタログに戻る

COSMOS 2417

GLONASS

運用中ナビゲーションMEO
NORAD 28917·PAYLOAD·🇷🇺 Russia

打ち上げ Dec 25, 2005 から Baikonur Cosmodrome

Loading…

次のパス (今後24時間)

TLE

最新Source: Space-Track

元期: Sep 9, 2026, 12:59 UTC

1 28917U 05050C   26252.54111478 -.00000033  00000-0  00000-0 0  9992
2 28917  65.5213 313.2954 0014615  97.7497 261.6515  2.13104580161028

AllMySatでCOSMOS 2417をリアルタイム追跡

Download on the App Store